Prescott, AZ

12:33 PM MST on October 18, 2019 (GMT -0700)
Love

Weather History for KPRC - August, 2019

Change the Weather History Date:

Tuesday, August 6, 2019

  Actual Average Record
Temperature  
Mean Temperature 78 °F 74 °F  
Max Temperature 90 °F 87 °F 98 °F (1995)
Min Temperature 66 °F 62 °F 52 °F (1953)
Degree Days  
Heating Degree Days 0    
Month to date heating degree days 0  
Since 1 July heating degree days 0  
Cooling Degree Days 13    
Month to date cooling degree days 85  
Year to date cooling degree days 653  
Growing Degree Days 27 (Base 50)    
Moisture  
Dew Point 55 °F    
Average Humidity 50    
Maximum Humidity 63    
Minimum Humidity 26    
Precipitation  
Precipitation T in 0.09 in 0.99 in (1948)
Month to date precipitation 0.16 0.53  
Year to date precipitation 7.97 7.57  
Sea Level Pressure  
Sea Level Pressure 29.94 in    
Wind  
Wind Speed 7 mph (SSW)    
Max Wind Speed 31 mph    
Max Gust Speed 41 mph    
Visibility 10 miles    
Events Rain , Thunderstorm    
T = Trace of Precipitation, MM = Missing Value Source: NWS Daily Summary

Daily Weather History Graph

Daily Weather History Graph

Search for Another Location

Airport or City:

Astronomy

Aug. 06, 2019 Rise Set
Actual Time 5:43 AM MST 7:27 PM MST
Civil Twilight 5:16 AM MST 7:54 PM MST
Nautical Twilight 4:43 AM MST 8:27 PM MST
Astronomical Twilight 4:08 AM MST 9:02 PM MST
Moon 11:57 AM MST (8/6) 11:31 PM MST (8/6)
Length of Visible Light 14h 38m
Length of Day
13h 43m
Waxing Crescent, 40% of the Moon is Illuminated
Aug 6
Waxing Crescent
Aug 7
First Quarter
Aug 15
Full
Aug 23
Last Quarter
Aug 30
New

Hourly Weather History & Observations

Time (MST) Temp. Heat Index Dew Point Humidity Pressure Visibility Wind Dir Wind Speed Gust Speed Precip Events Conditions
12:53 AM 77.0 °F - 50.0 °F 39% 29.88 in 10.0 mi ESE 8.1 mph - N/A   Scattered Clouds
1:53 AM 73.0 °F - 54.0 °F 51% 29.88 in 10.0 mi SE 4.6 mph - N/A   Clear
2:53 AM 72.0 °F - 55.0 °F 55% 29.89 in 10.0 mi ESE 8.1 mph - N/A   Partly Cloudy
3:53 AM 70.0 °F - 55.0 °F 59% 29.91 in 10.0 mi SW 5.8 mph - N/A   Mostly Cloudy
4:53 AM 66.9 °F - 54.0 °F 63% 29.90 in 10.0 mi Calm Calm - N/A   Clear
5:53 AM 66.9 °F - 54.0 °F 63% 29.94 in 10.0 mi South 6.9 mph - N/A   Mostly Cloudy
6:53 AM 69.1 °F - 55.0 °F 61% 29.96 in 10.0 mi Calm Calm - N/A   Mostly Cloudy
7:53 AM 73.9 °F - 55.0 °F 52% 29.96 in 10.0 mi Calm Calm - N/A   Mostly Cloudy
8:53 AM 79.0 °F - 54.0 °F 42% 29.94 in 10.0 mi SSW 3.5 mph - N/A   Partly Cloudy
9:53 AM 84.9 °F - 52.0 °F 32% 29.94 in 10.0 mi SSW 5.8 mph - N/A   Mostly Cloudy
10:53 AM 87.1 °F - 50.0 °F 28% 29.94 in 10.0 mi SSW 10.4 mph - N/A   Scattered Clouds
11:53 AM 88.0 °F - 48.9 °F 26% 29.91 in 10.0 mi South 11.5 mph - N/A   Scattered Clouds
12:53 PM 88.0 °F 85.9 °F 54.0 °F 31% 29.89 in 10.0 mi SE 15.0 mph 23.0 mph N/A   Mostly Cloudy
1:12 PM 87.8 °F 85.7 °F 53.6 °F 31% 30.17 in 10.0 mi East 10.4 mph 25.3 mph N/A Thunderstorm Mostly Cloudy
1:36 PM 80.6 °F 80.5 °F 55.4 °F 42% 30.19 in 10.0 mi West 27.6 mph 40.3 mph N/A Thunderstorm Thunderstorm
1:53 PM 80.1 °F 80.1 °F 55.0 °F 42% 29.93 in 10.0 mi West 20.7 mph 38.0 mph 0.00 in Rain , Thunderstorm Light Thunderstorms and Rain
2:53 PM 73.9 °F - 57.9 °F 57% 29.94 in 10.0 mi West 15.0 mph 23.0 mph 0.00 in Rain , Thunderstorm Light Thunderstorms and Rain
3:53 PM 73.0 °F - 55.0 °F 53% 29.93 in 10.0 mi WSW 16.1 mph 24.2 mph N/A Rain , Thunderstorm Light Rain
4:53 PM 75.0 °F - 55.0 °F 50% 29.91 in 10.0 mi West 8.1 mph - 0.00 in   Mostly Cloudy
5:53 PM 73.0 °F - 55.9 °F 55% 29.92 in 10.0 mi West 4.6 mph - N/A   Overcast
6:53 PM 73.0 °F - 55.9 °F 55% 29.93 in 10.0 mi South 3.5 mph - N/A   Overcast
7:53 PM 73.9 °F - 55.0 °F 52% 29.93 in 10.0 mi ESE 3.5 mph - N/A   Overcast
8:53 PM 73.0 °F - 55.9 °F 55% 29.93 in 10.0 mi Calm Calm - N/A   Overcast
9:53 PM 73.9 °F - 57.9 °F 57% 29.92 in 10.0 mi North 5.8 mph - 0.00 in Rain Light Rain
10:53 PM 70.0 °F - 60.1 °F 71% 29.95 in 10.0 mi North 4.6 mph - 0.00 in   Overcast
11:53 PM 69.1 °F - 60.1 °F 73% 29.94 in 10.0 mi South 5.8 mph - N/A   Scattered Clouds